Location: DARK SKY Beskydy - Park tmavé oblohy, www.darkskybeskydy.cz
(49.4926°N, 18.5016°E)
Time: 01:51:16
(UTC+01:00)

BlueWalker 3 - Pass Details

Date: 06 December 2022
Orbit: 499 x 517 km, 53.2° (Epoch: 06 February)

Event Time Altitude Azimuth Distance (km) Brightness Sun altitude
Rises 17:27:46 0° 290° (WNW) 2,629 6.5 -15.5°
Reaches altitude 10° 17:29:59 10° 294° (WNW) 1,737 5.4 -15.8°
Maximum altitude 17:33:54 64° 16° (NNE) 569 2.0 -16.4°
Enters shadow 17:35:18 36° 85° (E) 821 2.5 -16.7°
Exits shadow 18:09:09 -63° 113° (ESE) 11,951 8.9 -22.0°
